SCP
0 0 0 0 0 0 0 0 0 0 0 0 0 0 0 0 0 0 0 0 0 0 0 0 0 0 0 0 0 0 0 0 0 0 0 0 0 0 0 0 0 0 0
0 0 0 0 0 0 0 0 0 0 0 0 0 0 0 0 0 0 0 0 0 0 0 0 0 0 0 0 0 0 0 0 0 0 0 0 0 0 0 0 0 0 0
0 0 0 0 0 0 0 0 0 0 0 0 0 0 0 0 0 0 0 0 0 0 0 0 0 0 0 0 0 0 0 0 0 0 0 0 0 0 0 0 0 0 0
0 0 0 0 0 0 0 0 0 0 0 0 0 0 0 0 0 0 0 0 0 0 0 0 0 0 0 0 0 0 0 0 0 0 0 0 0 0 0 0 0 0 0
0 0 0 0 0 0 0 0 0 0 0 0 0 0 0 0 0 0 0 0 0 0 0 0 0 0 0 0 0 0 0 0 0 0 0 0 0 0 0 0 0 0 0
0 0 0 0 0 0 0 0 0 0 0 0 0 0 0 0 0 0 0 0 0 0 0 0 0 0 0 0 0 0 0 0 0 0 0 0 0 0 0 0 0 0 0
0 0 0 0 0 0 0 0 0 0 0 0 0 0 0 0 0 0 0 0 0 0 0 0 0 0 0 0 0 0 0 0 0 0 0 0 0 0 0 0 0 0 -0
0 0 0 0 0 0 0 0 0 0 0 0 0 0 0 0 0 0 0 0 0 0 0 0 0 0 0 0 0 0 0 0 0 0 0 0 0 0 0 0 0 0 -0
0 0 0 0 0 0 0 0 0 0 0 0 0 0 0 0 0 0 0 0 0 0 0 0 0 0 0 0 0 0 0 0 0 0 0 0 0 0 0 0 0 0 0
0 0 0 0 0 0 0 0 0 0 0 0 0 0 0 0 0 -0 0 0 0 0 0 0 0 0 0 0 0 0 0 0 0 0 0 0 0 0 0 0 0 0 0
0 0 0 0 0 0 0 0 0 0 0 0 0 0 0 0 0 -0 0 0 0 0 0 0 0 0 0 0 0 0 0 0 0 0 0 0 0 0 0 0 0 0 0
0 0 0 0 0 0 0 0 0 0 0 0 0 0 0 0 0 0 0 0 0 0 0 0 0 0 0 0 0 0 0 0 0 0 0 0 0 0 0 0 0 0 0
0 0 0 0 0 0 0 0 0 0 0 0 0 0 0 0 0 0 0 0 0 0 0 0 0 0 -0 0 0 0 0 0 0 0 0 0 0 0 0 0 0 0 0
0 0 0 0 0 0 0 0 0 0 0 0 0 0 0 0 0 0 0 0 0 0 0 0 0 0 0 0 0 0 0 0 0 0 0 0 0 0 0 0 0 0 0
0 0 0 0 0 0 0 0 0 0 0 0 0 0 0 0 0 0 0 0 0 -0 0 0 0 0 0 0 0 0 0 0 0 0 0 0 0 0 0 0 0 0 0
0 0 0 0 0 0 0 0 0 0 0 0 0 0 0 0 0 0 0 0 0 -0 0 0 0 0 0 0 0 0 0 0 0 0 0 0 0 0 0 0 0 0 0
0 0 0 0 0 0 0 0 0 0 0 0 0 0 0 0 0 0 0 0 0 -0 0 0 0 0 0 0 0 0 0 0 0 0 0 0 0 0 0 0 0 0 0
0 0 0 0 0 0 0 0 0 0 0 0 0 0 0 0 0 0 0 -0 -0 -0 0 0 0 0 0 0 0 0 0 0 0 0 0 0 0 0 0 0 0 0 0
0 0 0 0 0 0 0 0 0 0 0 0 0 0 0 0 0 0 0 -0 -0 -0 0 0 0 0 0 0 0 0 0 0 0 0 0 0 0 0 0 0 0 0 0
0 0 0 0 0 0 0 0 0 0 0 0 0 0 0 0 0 0 0 -0 -0 0 0 0 0 0 0 0 0 0 0 0 0 0 0 0 0 0 0 0 0 0 0
0 0 0 0 0 0 0 0 0 0 0 0 0 0 0 0 0 0 0 0 0 0 0 0 0 0 0 0 0 0 0 0 0 0 0 0 0 0 0 0 0 0 0
0 0 0 0 0 0 0 0 0 0 0 0 0 0 0 0 0 0 0 0 0 0 0 0 0 0 0 0 0 0 0 0 0 0 0 0 0 0 0 0 0 0 0
0 0 0 0 0 0 0 0 0 0 0 0 0 0 0 0 0 0 0 0 0 0 0 0 0 0 0 0 0 0 0 0 0 0 0 0 0 0 0 0 0 0 0
0 0 0 0 0 0 0 0 0 0 0 0 0 0 0 0 0 0 0 0 0 0 0 0 0 0 0 0 0 0 0 0 0 0 0 0 0 0 0 0 0 0 0
0 0 0 0 0 0 0 0 0 0 0 0 0 0 0 0 0 0 0 0 0 0 0 0 0 0 0 0 0 0 0 0 0 0 0 0 0 0 0 0 0 0 0
0 0 0 0 0 0 0 0 0 0 0 0 0 0 0 0 0 0 0 0 0 0 0 0 0 0 0 0 0 0 0 0 0 0 0 0 0 0 0 0 0 0 0
Wind_Speed
6 4 2 1 1 0 1 3 5 5 5 5 5 5 5 5 4 4 3 4 2 2 2 2 3 4 3 3 3 3 3 4 6 5 4 4 6 6 4 4 3 4 4
5 5 4 4 2 2 1 1 3 5 5 5 5 5 5 5 4 4 4 4 4 5 5 4 4 3 4 4 4 5 4 4 6 7 6 5 5 6 6 5 4 4 3
5 5 5 4 3 2 1 1 3 5 5 5 5 5 5 5 5 5 6 7 7 6 6 5 5 5 5 5 6 6 5 5 4 4 5 4 4 6 7 6 5 4 4
2 4 4 3 2 1 1 1 3 5 6 6 6 6 6 6 7 7 8 8 7 7 7 7 7 7 7 6 4 5 6 5 4 4 5 5 6 7 7 8 7 4 3
2 3 4 4 3 3 3 3 4 5 7 7 8 8 7 7 7 8 9 9 9 9 9 9 9 8 8 7 7 7 7 6 6 6 7 7 8 9 9 8 8 6 2
3 5 7 7 7 6 5 5 6 6 7 8 8 9 8 8 9 8 8 10 9 10 9 8 8 8 6 6 6 8 9 8 9 8 8 8 9 9 7 6 7 6 5
3 4 7 10 10 9 8 7 7 8 8 8 9 9 10 9 8 8 7 9 10 9 8 7 8 9 8 7 5 5 8 6 5 8 10 10 10 9 9 8 7 5 4
3 4 6 9 11 11 8 7 7 7 8 8 9 10 10 9 7 7 5 8 9 8 7 7 8 9 9 9 7 8 9 9 8 8 8 8 9 9 9 7 4 0 2
4 4 5 8 11 11 10 9 8 7 7 8 9 10 10 8 4 3 2 7 6 7 7 7 7 8 11 12 6 6 6 5 5 3 2 3 3 5 9 9 9 7 5
6 5 6 8 10 11 11 10 8 7 7 8 8 8 9 8 5 1 3 3 5 5 5 6 10 9 10 12 8 7 7 7 6 4 2 2 4 6 7 10 10 9 8
7 7 7 8 9 10 10 10 10 9 9 8 9 8 7 7 6 2 4 0 2 2 3 3 7 8 9 9 7 7 5 8 5 5 5 6 6 6 8 9 9 8 8
9 9 9 9 8 9 9 9 10 10 10 9 9 9 7 7 5 5 5 5 4 2 2 3 7 6 6 7 6 7 9 8 5 6 6 7 7 8 8 8 7 6 5
10 10 9 9 8 8 9 10 10 9 9 9 8 7 7 7 6 5 4 3 3 1 4 7 4 1 3 4 5 6 6 6 7 7 7 7 7 7 7 6 6 4 2
11 10 10 9 9 9 7 8 9 10 9 9 9 8 7 7 7 7 7 6 6 5 5 6 4 1 2 3 2 1 5 7 7 7 7 7 7 7 6 7 8 7 6
11 11 10 10 9 8 8 5 7 7 6 7 7 7 7 7 6 6 1 2 2 3 2 5 6 5 4 4 4 5 6 6 6 7 7 7 7 7 7 7 7 7 6
11 11 9 9 8 8 8 7 6 3 6 5 5 5 5 8 12 8 6 5 3 2 4 4 4 3 3 4 4 4 6 6 7 6 7 7 7 7 7 7 7 7 7
11 11 9 9 9 9 9 9 9 6 5 6 6 4 7 14 12 8 6 4 2 2 4 4 4 3 3 3 4 5 5 5 5 6 6 7 7 6 6 7 7 8 8
13 11 9 8 8 9 9 9 10 11 11 9 7 8 11 13 11 8 7 6 6 5 4 4 4 3 2 2 3 4 4 4 5 5 6 6 6 6 6 7 6 8 8
13 10 10 9 9 9 9 10 10 11 10 10 11 11 10 10 8 6 7 8 6 6 5 4 4 3 2 1 1 1 2 3 4 5 5 5 6 6 6 6 6 5 6
13 11 10 10 10 10 10 10 10 10 10 10 11 12 12 11 10 9 9 7 5 5 5 5 4 3 3 2 2 2 2 1 2 4 4 4 5 5 6 6 6 7 6
13 13 13 11 11 11 11 11 11 11 11 11 11 12 14 12 11 10 9 8 7 6 6 5 5 5 5 4 4 4 3 3 2 3 4 4 5 5 5 6 6 7 7
13 13 13 13 12 11 11 11 11 12 12 13 11 12 13 11 10 9 9 9 8 7 6 6 6 5 5 5 5 5 5 4 3 2 3 3 3 4 5 6 6 7 7
14 14 14 13 12 12 12 12 12 13 13 13 13 12 13 12 10 9 9 9 9 8 8 7 7 6 6 5 5 6 6 4 3 1 3 3 3 3 4 5 6 6 7
15 15 15 14 14 14 14 14 13 13 13 13 13 12 12 12 12 12 11 10 10 9 9 8 8 9 9 7 6 7 6 3 3 3 3 4 4 3 4 4 5 6 6
15 15 15 15 15 14 15 15 14 14 13 13 12 12 11 12 12 12 11 11 12 11 11 10 8 10 12 12 10 6 7 8 3 2 4 4 4 4 5 5 4 5 6
16 16 15 14 14 14 14 15 15 15 14 13 12 12 12 12 12 12 12 11 11 11 11 10 12 13 12 12 12 10 12 10 8 4 5 5 4 4 4 5 5 5 6
Wind_Direction
352 344 324 336 315 198 156 150 145 143 155 163 166 169 170 169 174 196 192 177 174 121 83 59 42 11 351 338 338 325 309 301 293 298 295 309 306 309 310 292 273 252 229
31 40 43 32 11 13 27 159 159 151 156 156 159 161 164 160 164 170 156 128 100 83 66 55 40 40 27 9 349 350 338 315 300 310 317 319 317 321 314 297 278 257 246
44 50 66 63 35 359 299 214 155 139 138 138 147 147 142 140 139 127 107 92 82 75 69 63 51 42 29 25 0 358 343 339 338 321 335 346 344 351 338 329 304 276 250
79 78 84 102 117 235 257 150 130 129 130 130 132 129 128 126 119 108 97 89 86 81 74 65 54 42 26 8 9 10 1 360 26 22 25 24 18 10 8 358 347 321 279
189 155 151 154 160 174 170 148 138 135 129 127 126 121 118 115 105 103 105 100 96 91 82 72 62 55 42 17 15 15 14 16 34 40 41 37 28 17 14 3 356 345 359
223 193 177 173 174 175 165 159 149 137 127 127 122 114 106 94 81 79 98 101 95 90 85 83 86 69 87 81 56 41 24 23 24 24 40 34 27 16 7 10 9 9 9
232 198 182 177 175 167 163 162 152 143 134 130 125 114 105 103 96 85 81 100 93 83 75 61 57 55 32 60 106 129 77 54 17 21 42 26 21 11 356 10 27 28 21
220 185 167 168 162 156 160 158 150 144 139 136 131 122 118 115 108 105 104 103 96 89 79 69 64 53 28 4 51 62 62 54 38 38 39 32 28 3 348 349 352 50 121
209 180 159 157 156 158 162 159 150 144 140 142 136 135 130 130 137 145 189 119 110 97 80 58 47 57 17 351 35 52 51 59 109 98 11 330 310 347 352 358 1 358 18
203 183 169 159 157 160 161 158 151 146 142 141 135 139 139 139 144 160 283 144 125 127 116 107 69 40 18 2 21 34 32 17 7 31 36 4 16 30 24 13 4 0 2
194 183 175 163 159 159 159 156 153 153 144 137 131 129 130 132 141 106 335 347 125 131 110 97 76 41 27 13 12 35 359 313 338 2 15 16 16 17 18 23 13 7 6
191 185 173 165 163 157 159 157 157 153 148 143 137 133 127 125 111 104 69 47 3 87 57 65 78 54 44 32 36 7 328 324 6 11 13 12 11 9 9 9 15 14 14
191 181 171 166 163 161 164 160 161 167 166 157 155 154 147 135 122 116 109 87 7 14 69 61 62 104 203 116 61 342 344 14 12 8 6 5 2 4 347 350 354 345 314
189 178 172 170 172 171 175 174 176 178 177 171 172 164 153 156 160 164 164 166 179 175 142 137 160 176 138 101 156 32 42 30 1 2 358 354 350 350 355 357 349 345 348
189 182 181 182 179 173 182 178 190 185 182 180 171 161 167 176 123 68 68 110 82 76 169 170 165 157 139 96 72 49 30 25 14 10 2 355 353 352 355 359 350 341 350
191 188 190 189 181 184 173 160 65 85 118 119 132 166 141 120 124 117 102 92 79 354 257 158 138 123 92 67 46 47 47 31 14 11 8 1 355 353 355 357 355 352 352
201 194 196 192 185 193 186 180 166 131 118 139 156 148 133 140 146 154 154 145 151 250 216 145 134 118 95 73 50 38 40 44 12 9 12 3 355 353 359 356 4 357 350
204 195 200 195 194 195 192 188 182 173 170 169 168 153 142 152 161 169 172 186 179 211 199 153 149 138 113 61 42 32 26 27 17 7 14 5 357 357 1 353 8 8 344
203 197 196 201 198 198 193 190 186 182 176 170 164 158 159 160 170 180 198 228 191 179 179 172 176 173 164 153 56 5 5 15 14 343 12 4 356 356 2 353 357 7 327
201 194 188 199 200 197 194 191 185 183 182 182 179 171 167 182 189 183 202 220 211 187 184 187 190 198 212 235 239 267 294 330 336 333 7 355 351 350 352 344 348 343 344
194 181 185 204 203 197 193 193 190 187 190 191 189 174 171 191 197 189 189 196 207 199 193 199 197 202 214 227 243 243 256 289 312 336 341 341 344 342 336 340 340 337 340
192 182 187 202 200 197 194 194 194 193 194 195 189 167 171 205 205 200 199 196 201 208 203 208 221 219 223 227 233 239 247 251 270 297 309 314 317 323 331 337 340 336 334
192 187 185 196 198 190 195 198 195 194 194 194 193 183 182 207 219 217 214 211 209 210 212 213 229 238 230 228 238 246 249 241 237 277 297 293 294 307 315 328 328 326 334
193 191 188 191 196 192 195 200 197 197 197 197 199 199 193 197 214 220 222 220 218 218 219 221 229 236 235 232 233 231 226 211 211 214 243 287 286 285 295 308 316 333 329
194 192 192 192 194 195 195 199 200 200 202 203 204 207 209 207 210 215 216 218 219 221 225 229 231 234 234 228 227 218 132 125 156 253 207 239 257 272 284 297 312 320 321
197 194 193 193 193 197 198 199 202 203 205 207 208 210 213 214 214 214 212 213 216 219 226 231 233 233 229 222 215 170 147 153 162 195 252 238 233 248 270 285 304 306 315